Location: Central Falls
(41.8900°N, 71.3929°W)
Time: 02:41:55
(UTC+00:00)

Vanguard 2 - Pass Details

Date: 07 December 2023
Orbit: 554 x 2918 km, 32.9° (Epoch: 01 March)

Event Time Altitude Azimuth Distance (km) Brightness Sun altitude
Rises 02:03:05 0° 245° (WSW) 6,735 12.7 -52.6°
Reaches altitude 10° 02:07:41 10° 241° (WSW) 5,744 12.2 -53.4°
Enters shadow 02:17:48 39° 223° (SW) 3,709 10.8 -55.2°
Maximum altitude 02:24:34 56° 170° (S) 2,922 - -56.3°
Drops below altitude 10° 02:37:00 10° 97° (E) 4,357 - -58.4°
Sets 02:39:58 0° 93° (E) 5,074 - -58.9°
